Showing default

NINGXIA-1 5, 44783

Orbit data source: Space-Track

NINGXIA-1 5, 44783 is a Chinese payload satellite in LEO that was launched on Wed, 13 Nov 2019 UTC via a CHANG ZHENG 6 launch vehicle from the Taiyaun Space Center, China (TSC). Payload-class satellites include a variety of spacecraft equipped with specific instruments for various scientific and technological missions. These include communications satellites like Starlink; space stations such as the ISS; scientific satellites like the Hubble; Earth observation satellites from companies like Planet Labs, Umbra, and HawkEye 360; GPS; miniature CubeSats for education and research; and military/defense satellites.

Loading next visibility...
Identifier
44783, 2019-076E
Orbit
LEO
Country
Flag of CNCN / PRC
Related business
Manufacturer
DFH
Mission
Operational Commercial Sigint
Bus & Motor
NX-1, Unknown motor
Mass
~100 kg wet, ~100 kg dry
Launch date (UTC)
2019-11-13 (6 years ago)
Launch vehicle
CHANG ZHENG 6
Launch site
Taiyaun Space Center, China (TSC)
Object type
Payload
Rocket body
Debris
Shape & HBR
Box + 2 Pan, Unknown HBR
Radar Cross Section
0.166 m², Medium (>0.1 m² and < 1m²)

Expand to show TLE details & history
Last TLE update: 10 hours ago

TLE from 10 hours ago
0 NINGXIA-1 5
1 44783U 19076E   25258.98861311 -.00000077  00000-0  34262-4 0  9994
2 44783  45.0068 324.4853 0011956 283.7825  76.1678 14.01961184299298
Epoch: 2025-09-15T23:43Z
TLE epoch observation values (Epoch: 2025-09-15T23:43:36.172Z)
Latitude
-0.00005°
Longitude
-26.60083°
Altitude
884.945 km
Speed
7.412 km/s
True Right ascension
21h 37m 56s
True Declination
0° 00' 00"
Sunlit
Object was in full shadow at epoch
Visualization orbit readout
Latitude
Unknown
Longitude
Unknown
Altitude
Unknown
Speed
Unknown
Apparent Right ascension
Unknown
Apparent Declination
Unknown
Sunlit
N/A
Visualization observer readout
Local Sidereal Time
02:23:56
Azimuth
Unknown
Elevation
Unknown
Doppler factor
Unknown
Orbital elements
Apogee altitude
897.219 km
Perigee altitude
879.843 km
Semi-major axis
7,266.668 km
Eccentricity
0.0012
Inclination
45.0068°
RAAN
324.4853°
Arg. of periapsis
283.7825°
True anomaly
76.30088°
Mean anomaly
76.1678°
Eccentric anomaly
76.23434°
Mean motion
3.50381 °/min
Orbital period
102.75 mins
BSTAR
0.000034262
Loading maneuver chart data...
Computing Atmospheric mass density...
Loading historical data...
Loading historical data...
Loading historical data...
Loading historical data...
Loading historical data...
Loading historical data...
Loading historical data...
Other satellites on launch #76 in the year 2019 (2019-11-13 UTC)

Documentation

Showing up to 5 results
|